QPF
0.02 0.02 0.02 0.03 0.04 0.04 0.04 0.05 0.05 0.05 0.05 0.05 0.06 0.06 0.06 0.06 0.07 0.07 0.07 0.08 0.08 0.09 0.09 0.06 0.07 0.06 0.06 0.06 0.06 0.08 0.10 0.09 0.07 0.06 0.04 0.05 0.07 0.07 0.06 0.08 0.08 0.07 0.08
0.02 0.02 0.01 0.02 0.02 0.03 0.03 0.03 0.02 0.03 0.04 0.04 0.05 0.05 0.05 0.06 0.08 0.08 0.09 0.12 0.11 0.14 0.09 0.05 0.05 0.05 0.05 0.06 0.06 0.08 0.08 0.06 0.05 0.06 0.08 0.07 0.07 0.07 0.07 0.08 0.08 0.07 0.09
0.01 0.02 0.01 0.01 0.01 0.02 0.03 0.04 0.03 0.03 0.04 0.04 0.04 0.05 0.06 0.07 0.10 0.12 0.12 0.15 0.18 0.16 0.09 0.08 0.06 0.06 0.06 0.06 0.06 0.07 0.06 0.05 0.05 0.08 0.13 0.11 0.08 0.09 0.08 0.07 0.07 0.06 0.08
0.01 0.01 0.00 0.01 0.01 0.01 0.02 0.03 0.03 0.03 0.04 0.04 0.03 0.04 0.07 0.08 0.11 0.11 0.11 0.14 0.15 0.10 0.07 0.07 0.07 0.07 0.08 0.07 0.06 0.05 0.04 0.05 0.07 0.10 0.14 0.15 0.12 0.11 0.11 0.12 0.11 0.09 0.08
0.01 0.01 0.00 0.00 0.01 0.01 0.01 0.03 0.04 0.03 0.03 0.03 0.03 0.04 0.06 0.08 0.08 0.08 0.09 0.09 0.08 0.08 0.08 0.09 0.08 0.07 0.07 0.06 0.05 0.04 0.04 0.06 0.09 0.09 0.09 0.11 0.10 0.12 0.13 0.13 0.12 0.10 0.09
0.01 0.00 0.00 0.00 0.01 0.01 0.02 0.03 0.03 0.03 0.02 0.02 0.02 0.03 0.07 0.09 0.09 0.10 0.11 0.08 0.07 0.08 0.09 0.08 0.08 0.07 0.08 0.08 0.06 0.05 0.06 0.07 0.07 0.06 0.08 0.09 0.09 0.11 0.10 0.10 0.10 0.09 0.08
0.00 0.00 0.00 0.01 0.01 0.01 0.03 0.02 0.02 0.02 0.02 0.01 0.02 0.03 0.06 0.09 0.12 0.12 0.12 0.10 0.09 0.09 0.10 0.12 0.12 0.09 0.08 0.08 0.08 0.07 0.07 0.07 0.05 0.05 0.08 0.09 0.09 0.07 0.05 0.07 0.07 0.07 0.07
0.00 0.00 0.00 0.01 0.01 0.01 0.01 0.02 0.02 0.01 0.02 0.03 0.03 0.02 0.03 0.06 0.11 0.13 0.12 0.12 0.11 0.10 0.15 0.21 0.24 0.17 0.10 0.09 0.10 0.11 0.09 0.06 0.04 0.05 0.07 0.07 0.08 0.06 0.05 0.05 0.05 0.07 0.05
0.00 0.00 0.00 0.00 0.00 0.01 0.01 0.01 0.01 0.01 0.02 0.02 0.02 0.02 0.02 0.03 0.06 0.09 0.11 0.13 0.11 0.09 0.12 0.26 0.23 0.16 0.12 0.11 0.13 0.12 0.08 0.05 0.04 0.04 0.03 0.04 0.06 0.06 0.05 0.05 0.05 0.05 0.05
0.00 0.00 0.00 0.00 0.00 0.01 0.01 0.01 0.02 0.02 0.02 0.01 0.02 0.02 0.02 0.03 0.06 0.09 0.10 0.13 0.12 0.10 0.15 0.38 0.34 0.20 0.13 0.10 0.09 0.08 0.06 0.04 0.04 0.03 0.05 0.05 0.06 0.07 0.06 0.06 0.05 0.06 0.05
0.00 0.00 0.00 0.00 0.00 0.01 0.01 0.01 0.02 0.02 0.01 0.02 0.02 0.02 0.03 0.05 0.07 0.12 0.14 0.14 0.11 0.10 0.16 0.37 0.42 0.24 0.13 0.09 0.09 0.06 0.03 0.03 0.03 0.03 0.05 0.06 0.06 0.06 0.05 0.05 0.04 0.05 0.04
0.00 0.00 0.00 0.00 0.00 0.00 0.01 0.01 0.03 0.03 0.02 0.03 0.03 0.03 0.04 0.05 0.06 0.07 0.12 0.13 0.10 0.09 0.11 0.22 0.33 0.25 0.15 0.09 0.09 0.07 0.04 0.04 0.03 0.03 0.05 0.06 0.05 0.04 0.04 0.04 0.04 0.04 0.03
0.00 0.00 0.00 0.00 0.00 0.00 0.01 0.02 0.02 0.03 0.03 0.03 0.04 0.04 0.05 0.04 0.03 0.03 0.03 0.03 0.03 0.04 0.05 0.08 0.16 0.19 0.13 0.09 0.10 0.08 0.04 0.04 0.03 0.03 0.05 0.05 0.05 0.05 0.03 0.03 0.03 0.03 0.03
0.00 0.00 0.00 0.00 0.00 0.00 0.01 0.02 0.01 0.02 0.03 0.04 0.04 0.03 0.04 0.04 0.03 0.02 0.03 0.02 0.02 0.02 0.03 0.03 0.05 0.06 0.06 0.06 0.06 0.04 0.02 0.03 0.04 0.05 0.06 0.04 0.05 0.06 0.04 0.03 0.03 0.03 0.02
0.00 0.00 0.00 0.00 0.00 0.01 0.01 0.01 0.01 0.02 0.02 0.02 0.04 0.04 0.02 0.03 0.04 0.03 0.02 0.02 0.03 0.03 0.03 0.02 0.03 0.02 0.02 0.02 0.02 0.02 0.02 0.04 0.06 0.06 0.06 0.05 0.04 0.05 0.04 0.03 0.02 0.03 0.03
0.01 0.01 0.00 0.00 0.01 0.01 0.00 0.00 0.01 0.01 0.01 0.02 0.03 0.03 0.01 0.02 0.02 0.03 0.04 0.05 0.02 0.02 0.01 0.02 0.03 0.02 0.02 0.02 0.01 0.01 0.01 0.03 0.05 0.04 0.04 0.04 0.04 0.03 0.02 0.02 0.03 0.03 0.04
0.01 0.00 0.00 0.00 0.00 0.01 0.01 0.01 0.01 0.01 0.01 0.01 0.03 0.02 0.02 0.01 0.01 0.03 0.04 0.04 0.02 0.02 0.02 0.02 0.02 0.02 0.02 0.02 0.02 0.02 0.01 0.01 0.03 0.04 0.04 0.05 0.05 0.04 0.04 0.04 0.04 0.04 0.04
0.01 0.01 0.01 0.02 0.01 0.00 0.00 0.01 0.01 0.01 0.02 0.02 0.02 0.03 0.02 0.02 0.01 0.02 0.04 0.03 0.01 0.01 0.02 0.02 0.02 0.03 0.03 0.02 0.02 0.02 0.01 0.02 0.02 0.03 0.03 0.04 0.06 0.06 0.05 0.06 0.06 0.03 0.03
0.01 0.01 0.01 0.01 0.01 0.00 0.00 0.01 0.01 0.02 0.02 0.03 0.03 0.03 0.03 0.03 0.02 0.02 0.03 0.03 0.02 0.02 0.01 0.01 0.03 0.03 0.03 0.04 0.02 0.02 0.02 0.02 0.02 0.02 0.02 0.02 0.03 0.05 0.03 0.02 0.04 0.05 0.03
0.00 0.00 0.01 0.01 0.01 0.01 0.01 0.01 0.02 0.02 0.02 0.02 0.03 0.03 0.04 0.02 0.01 0.01 0.01 0.02 0.02 0.02 0.02 0.02 0.03 0.03 0.03 0.04 0.02 0.01 0.02 0.02 0.03 0.03 0.03 0.02 0.03 0.03 0.02 0.02 0.03 0.04 0.04
0.01 0.00 0.00 0.00 0.01 0.01 0.02 0.02 0.02 0.02 0.02 0.01 0.01 0.01 0.01 0.01 0.01 0.02 0.02 0.02 0.02 0.02 0.02 0.02 0.02 0.02 0.02 0.02 0.02 0.02 0.01 0.01 0.02 0.02 0.02 0.03 0.03 0.03 0.02 0.02 0.03 0.04 0.05
0.00 0.00 0.00 0.00 0.01 0.01 0.01 0.01 0.01 0.01 0.01 0.02 0.02 0.02 0.01 0.01 0.01 0.02 0.03 0.04 0.04 0.04 0.03 0.03 0.02 0.03 0.02 0.02 0.03 0.03 0.03 0.02 0.01 0.01 0.02 0.02 0.03 0.03 0.02 0.02 0.03 0.04 0.04
0.01 0.00 0.00 0.00 0.00 0.01 0.00 0.00 0.01 0.02 0.02 0.01 0.01 0.01 0.01 0.01 0.01 0.02 0.02 0.02 0.03 0.04 0.04 0.04 0.03 0.04 0.03 0.02 0.02 0.04 0.05 0.04 0.03 0.02 0.03 0.03 0.03 0.03 0.02 0.02 0.03 0.03 0.03
0.00 0.00 0.00 0.00 0.00 0.00 0.01 0.01 0.01 0.01 0.01 0.01 0.00 0.00 0.01 0.01 0.02 0.02 0.02 0.02 0.02 0.03 0.03 0.02 0.02 0.03 0.04 0.04 0.02 0.02 0.03 0.03 0.04 0.04 0.04 0.04 0.03 0.02 0.02 0.02 0.02 0.03 0.03
0.00 0.00 0.00 0.00 0.00 0.00 0.01 0.02 0.02 0.01 0.01 0.01 0.01 0.01 0.01 0.01 0.01 0.02 0.03 0.02 0.01 0.02 0.02 0.03 0.02 0.03 0.03 0.03 0.03 0.03 0.02 0.03 0.03 0.04 0.05 0.04 0.03 0.02 0.01 0.01 0.02 0.03 0.04
0.01 0.01 0.00 0.00 0.00 0.01 0.01 0.01 0.01 0.01 0.01 0.02 0.02 0.01 0.01 0.01 0.01 0.02 0.02 0.02 0.01 0.01 0.01 0.02 0.03 0.03 0.03 0.03 0.03 0.03 0.03 0.03 0.03 0.03 0.04 0.04 0.04 0.03 0.02 0.01 0.01 0.02 0.02
MSLP
1010.92 1010.45 1010.08 1009.87 1009.80 1009.85 1009.93 1009.99 1009.97 1009.83 1009.60 1009.31 1009.02 1008.79 1008.64 1008.59 1008.60 1008.66 1008.71 1008.73 1008.72 1008.69 1008.67 1008.66 1008.70 1008.80 1008.93 1009.10 1009.28 1009.46 1009.64 1009.82 1010.01 1010.22 1010.46 1010.72 1010.98 1011.25 1011.50 1011.73 1011.94 1012.13 1012.31
1011.08 1010.63 1010.29 1010.10 1010.05 1010.11 1010.19 1010.22 1010.17 1010.00 1009.75 1009.45 1009.18 1008.97 1008.86 1008.85 1008.90 1008.98 1009.04 1009.06 1009.04 1008.98 1008.93 1008.91 1008.94 1009.04 1009.19 1009.38 1009.59 1009.81 1010.02 1010.24 1010.48 1010.73 1011.00 1011.28 1011.56 1011.82 1012.06 1012.27 1012.45 1012.60 1012.75
1011.20 1010.78 1010.46 1010.30 1010.27 1010.32 1010.40 1010.41 1010.33 1010.14 1009.87 1009.57 1009.31 1009.13 1009.06 1009.08 1009.16 1009.26 1009.32 1009.32 1009.28 1009.20 1009.13 1009.11 1009.15 1009.26 1009.45 1009.68 1009.93 1010.20 1010.47 1010.74 1011.02 1011.31 1011.62 1011.92 1012.21 1012.47 1012.68 1012.86 1013.01 1013.14 1013.27
1011.24 1010.86 1010.59 1010.46 1010.46 1010.52 1010.59 1010.59 1010.49 1010.28 1010.00 1009.71 1009.46 1009.31 1009.26 1009.31 1009.40 1009.49 1009.55 1009.55 1009.49 1009.41 1009.34 1009.33 1009.40 1009.55 1009.78 1010.06 1010.37 1010.68 1011.00 1011.32 1011.64 1011.97 1012.29 1012.61 1012.90 1013.15 1013.35 1013.50 1013.63 1013.74 1013.86
1011.21 1010.88 1010.67 1010.59 1010.64 1010.73 1010.81 1010.82 1010.71 1010.49 1010.21 1009.92 1009.69 1009.55 1009.51 1009.57 1009.66 1009.75 1009.80 1009.79 1009.74 1009.67 1009.63 1009.65 1009.76 1009.97 1010.25 1010.59 1010.94 1011.30 1011.65 1012.00 1012.34 1012.68 1013.01 1013.33 1013.60 1013.84 1014.02 1014.16 1014.27 1014.37 1014.49
1011.12 1010.86 1010.73 1010.73 1010.84 1010.98 1011.09 1011.11 1011.01 1010.80 1010.53 1010.25 1010.02 1009.89 1009.87 1009.92 1010.01 1010.10 1010.14 1010.13 1010.09 1010.05 1010.05 1010.13 1010.30 1010.57 1010.91 1011.28 1011.67 1012.05 1012.41 1012.76 1013.09 1013.42 1013.74 1014.04 1014.30 1014.51 1014.67 1014.80 1014.90 1015.01 1015.15
1011.03 1010.85 1010.81 1010.90 1011.08 1011.29 1011.45 1011.50 1011.42 1011.23 1010.97 1010.71 1010.50 1010.39 1010.37 1010.42 1010.51 1010.58 1010.63 1010.63 1010.61 1010.61 1010.66 1010.80 1011.03 1011.35 1011.73 1012.14 1012.54 1012.91 1013.25 1013.57 1013.88 1014.18 1014.46 1014.72 1014.96 1015.15 1015.30 1015.41 1015.52 1015.64 1015.78
1010.99 1010.89 1010.94 1011.12 1011.39 1011.66 1011.87 1011.96 1011.92 1011.76 1011.53 1011.30 1011.13 1011.03 1011.03 1011.09 1011.17 1011.25 1011.29 1011.30 1011.31 1011.34 1011.44 1011.64 1011.92 1012.28 1012.69 1013.10 1013.49 1013.83 1014.14 1014.40 1014.66 1014.90 1015.14 1015.37 1015.58 1015.75 1015.89 1016.00 1016.11 1016.23 1016.39
1011.04 1011.01 1011.14 1011.40 1011.73 1012.07 1012.32 1012.45 1012.45 1012.34 1012.16 1011.99 1011.86 1011.81 1011.83 1011.91 1012.00 1012.08 1012.12 1012.14 1012.16 1012.22 1012.36 1012.58 1012.90 1013.28 1013.69 1014.09 1014.45 1014.75 1014.99 1015.20 1015.39 1015.58 1015.78 1015.97 1016.16 1016.32 1016.45 1016.57 1016.67 1016.80 1016.96
1011.19 1011.22 1011.40 1011.72 1012.10 1012.48 1012.77 1012.94 1012.98 1012.92 1012.81 1012.71 1012.65 1012.65 1012.72 1012.83 1012.93 1013.01 1013.06 1013.07 1013.09 1013.16 1013.30 1013.54 1013.86 1014.24 1014.64 1015.01 1015.33 1015.58 1015.78 1015.93 1016.07 1016.22 1016.38 1016.56 1016.73 1016.89 1017.03 1017.14 1017.25 1017.37 1017.51
1011.42 1011.50 1011.72 1012.07 1012.47 1012.85 1013.16 1013.36 1013.45 1013.45 1013.41 1013.38 1013.40 1013.49 1013.61 1013.76 1013.89 1013.98 1014.02 1014.02 1014.03 1014.08 1014.21 1014.43 1014.74 1015.10 1015.47 1015.81 1016.10 1016.32 1016.47 1016.59 1016.70 1016.82 1016.98 1017.15 1017.33 1017.50 1017.64 1017.76 1017.86 1017.96 1018.08
1011.72 1011.83 1012.07 1012.42 1012.81 1013.19 1013.49 1013.70 1013.81 1013.87 1013.90 1013.96 1014.07 1014.23 1014.43 1014.62 1014.78 1014.88 1014.92 1014.91 1014.89 1014.92 1015.01 1015.20 1015.48 1015.81 1016.16 1016.48 1016.74 1016.94 1017.08 1017.19 1017.29 1017.42 1017.59 1017.77 1017.97 1018.16 1018.31 1018.43 1018.52 1018.59 1018.67
1012.04 1012.17 1012.42 1012.76 1013.12 1013.47 1013.75 1013.95 1014.08 1014.18 1014.27 1014.40 1014.59 1014.83 1015.09 1015.34 1015.54 1015.66 1015.70 1015.68 1015.64 1015.63 1015.70 1015.85 1016.09 1016.39 1016.71 1017.02 1017.28 1017.48 1017.63 1017.76 1017.89 1018.04 1018.23 1018.45 1018.67 1018.88 1019.05 1019.17 1019.24 1019.28 1019.32
1012.35 1012.51 1012.76 1013.07 1013.40 1013.70 1013.95 1014.14 1014.28 1014.39 1014.53 1014.71 1014.96 1015.26 1015.58 1015.88 1016.11 1016.26 1016.32 1016.30 1016.26 1016.24 1016.27 1016.40 1016.60 1016.88 1017.19 1017.50 1017.77 1017.99 1018.18 1018.34 1018.51 1018.70 1018.92 1019.17 1019.42 1019.64 1019.82 1019.94 1020.00 1020.01 1020.01
1012.61 1012.80 1013.06 1013.35 1013.65 1013.93 1014.15 1014.31 1014.44 1014.56 1014.72 1014.92 1015.20 1015.53 1015.89 1016.23 1016.51 1016.69 1016.78 1016.80 1016.77 1016.75 1016.79 1016.90 1017.09 1017.36 1017.67 1017.98 1018.27 1018.52 1018.75 1018.95 1019.15 1019.38 1019.63 1019.90 1020.16 1020.40 1020.59 1020.71 1020.76 1020.75 1020.70
1012.82 1013.04 1013.31 1013.61 1013.90 1014.16 1014.36 1014.52 1014.64 1014.75 1014.89 1015.09 1015.37 1015.70 1016.07 1016.43 1016.74 1016.98 1017.12 1017.19 1017.22 1017.24 1017.29 1017.41 1017.61 1017.88 1018.19 1018.51 1018.82 1019.10 1019.36 1019.59 1019.82 1020.06 1020.32 1020.60 1020.87 1021.10 1021.29 1021.40 1021.44 1021.43 1021.37
1012.96 1013.22 1013.51 1013.83 1014.13 1014.40 1014.62 1014.78 1014.90 1015.00 1015.12 1015.29 1015.53 1015.83 1016.18 1016.55 1016.89 1017.18 1017.39 1017.54 1017.64 1017.72 1017.83 1017.98 1018.19 1018.46 1018.77 1019.10 1019.42 1019.72 1019.99 1020.23 1020.47 1020.71 1020.96 1021.21 1021.47 1021.69 1021.87 1021.98 1022.02 1022.00 1021.95
1013.02 1013.32 1013.65 1014.00 1014.35 1014.67 1014.93 1015.12 1015.25 1015.34 1015.43 1015.56 1015.74 1015.99 1016.30 1016.65 1017.01 1017.35 1017.64 1017.87 1018.06 1018.22 1018.39 1018.58 1018.82 1019.10 1019.41 1019.73 1020.05 1020.34 1020.60 1020.84 1021.06 1021.27 1021.49 1021.71 1021.92 1022.12 1022.28 1022.40 1022.45 1022.45 1022.41
1013.01 1013.34 1013.72 1014.12 1014.53 1014.92 1015.25 1015.50 1015.67 1015.78 1015.84 1015.92 1016.03 1016.21 1016.47 1016.79 1017.16 1017.53 1017.88 1018.20 1018.48 1018.72 1018.95 1019.19 1019.44 1019.73 1020.03 1020.34 1020.64 1020.92 1021.16 1021.37 1021.56 1021.72 1021.89 1022.06 1022.23 1022.40 1022.54 1022.66 1022.73 1022.76 1022.76
1012.94 1013.30 1013.71 1014.17 1014.66 1015.13 1015.55 1015.89 1016.12 1016.26 1016.32 1016.36 1016.42 1016.53 1016.73 1017.01 1017.36 1017.75 1018.15 1018.53 1018.88 1019.19 1019.48 1019.74 1020.01 1020.29 1020.57 1020.86 1021.14 1021.39 1021.61 1021.79 1021.93 1022.06 1022.17 1022.29 1022.41 1022.54 1022.67 1022.79 1022.89 1022.96 1023.00
1012.83 1013.20 1013.63 1014.14 1014.70 1015.26 1015.79 1016.22 1016.54 1016.74 1016.82 1016.85 1016.87 1016.93 1017.07 1017.30 1017.63 1018.01 1018.44 1018.86 1019.25 1019.60 1019.91 1020.19 1020.45 1020.71 1020.97 1021.24 1021.49 1021.72 1021.92 1022.08 1022.20 1022.28 1022.35 1022.42 1022.50 1022.60 1022.72 1022.84 1022.96 1023.07 1023.16
1012.69 1013.06 1013.51 1014.04 1014.66 1015.30 1015.92 1016.45 1016.87 1017.14 1017.28 1017.33 1017.34 1017.37 1017.46 1017.66 1017.94 1018.31 1018.73 1019.15 1019.56 1019.91 1020.22 1020.49 1020.73 1020.97 1021.21 1021.45 1021.69 1021.91 1022.11 1022.26 1022.36 1022.43 1022.47 1022.51 1022.56 1022.64 1022.74 1022.87 1023.02 1023.16 1023.30
1012.55 1012.91 1013.35 1013.89 1014.53 1015.22 1015.92 1016.54 1017.06 1017.42 1017.63 1017.73 1017.76 1017.79 1017.87 1018.03 1018.28 1018.62 1019.01 1019.41 1019.78 1020.12 1020.40 1020.64 1020.85 1021.06 1021.28 1021.51 1021.75 1021.98 1022.19 1022.36 1022.48 1022.55 1022.58 1022.60 1022.64 1022.69 1022.79 1022.92 1023.09 1023.27 1023.44
1012.40 1012.77 1013.19 1013.71 1014.34 1015.05 1015.79 1016.48 1017.08 1017.53 1017.83 1018.00 1018.08 1018.14 1018.23 1018.38 1018.61 1018.91 1019.25 1019.61 1019.94 1020.23 1020.47 1020.67 1020.84 1021.02 1021.23 1021.46 1021.71 1021.97 1022.21 1022.42 1022.57 1022.67 1022.71 1022.74 1022.76 1022.81 1022.90 1023.03 1023.21 1023.41 1023.62
1012.26 1012.63 1013.03 1013.52 1014.12 1014.82 1015.56 1016.29 1016.94 1017.47 1017.86 1018.11 1018.27 1018.38 1018.50 1018.66 1018.88 1019.15 1019.45 1019.76 1020.04 1020.28 1020.47 1020.63 1020.77 1020.93 1021.13 1021.37 1021.65 1021.94 1022.23 1022.48 1022.68 1022.81 1022.88 1022.91 1022.94 1022.98 1023.06 1023.19 1023.38 1023.60 1023.83
1012.09 1012.48 1012.88 1013.34 1013.89 1014.55 1015.27 1016.00 1016.68 1017.27 1017.73 1018.07 1018.31 1018.49 1018.65 1018.84 1019.06 1019.32 1019.60 1019.87 1020.11 1020.30 1020.46 1020.58 1020.71 1020.85 1021.05 1021.31 1021.61 1021.94 1022.27 1022.57 1022.81 1022.98 1023.08 1023.13 1023.15 1023.19 1023.26 1023.39 1023.58 1023.81 1024.06
Thickness
5769 5770 5769 5769 5770 5771 5771 5772 5772 5773 5773 5774 5774 5775 5775 5775 5775 5776 5777 5778 5777 5777 5778 5778 5779 5779 5779 5779 5779 5778 5777 5777 5777 5776 5775 5775 5775 5775 5775 5775 5775 5775 5774
5771 5770 5768 5767 5768 5768 5769 5769 5770 5770 5771 5771 5771 5772 5772 5772 5772 5773 5774 5776 5775 5774 5774 5775 5775 5775 5776 5776 5775 5775 5775 5775 5774 5774 5774 5774 5773 5773 5773 5773 5773 5772 5772
5772 5769 5766 5765 5765 5766 5766 5767 5767 5767 5768 5768 5768 5768 5769 5769 5769 5770 5771 5772 5771 5770 5771 5771 5771 5771 5772 5772 5772 5772 5772 5772 5772 5772 5773 5773 5772 5771 5771 5770 5770 5770 5770
5771 5767 5764 5763 5763 5763 5763 5764 5764 5764 5764 5765 5765 5765 5765 5765 5765 5766 5767 5767 5767 5766 5767 5767 5767 5767 5767 5768 5768 5768 5768 5769 5769 5770 5770 5770 5770 5768 5768 5767 5767 5767 5766
5769 5766 5762 5761 5761 5761 5761 5761 5761 5762 5762 5762 5762 5762 5761 5761 5762 5762 5763 5763 5763 5762 5763 5763 5763 5763 5763 5763 5764 5764 5764 5765 5765 5765 5765 5765 5765 5764 5764 5763 5763 5763 5763
5767 5764 5760 5759 5758 5758 5758 5758 5758 5758 5758 5758 5758 5758 5758 5758 5758 5758 5758 5758 5758 5758 5758 5758 5758 5758 5758 5759 5759 5760 5760 5760 5760 5760 5760 5759 5759 5759 5759 5759 5759 5759 5759
5765 5763 5759 5757 5756 5755 5755 5755 5755 5755 5755 5755 5755 5755 5754 5754 5754 5754 5754 5753 5753 5753 5753 5753 5753 5754 5754 5754 5755 5755 5755 5755 5755 5755 5755 5755 5755 5755 5755 5755 5755 5755 5755
5764 5762 5758 5755 5754 5753 5752 5752 5752 5751 5751 5751 5751 5751 5751 5750 5749 5749 5749 5749 5748 5748 5748 5748 5748 5748 5749 5749 5750 5750 5751 5751 5751 5750 5750 5750 5751 5751 5751 5751 5750 5751 5751
5763 5761 5758 5755 5752 5751 5750 5749 5749 5748 5748 5748 5748 5747 5747 5747 5746 5745 5745 5744 5744 5743 5743 5743 5743 5743 5743 5744 5745 5746 5746 5746 5746 5746 5745 5745 5746 5746 5746 5746 5746 5746 5747
5762 5760 5758 5756 5753 5751 5748 5747 5746 5746 5745 5745 5744 5744 5744 5743 5742 5741 5740 5740 5739 5739 5738 5738 5738 5739 5738 5739 5740 5741 5741 5741 5741 5741 5740 5740 5741 5741 5741 5741 5741 5741 5742
5758 5758 5757 5756 5753 5751 5748 5745 5744 5743 5743 5742 5741 5741 5740 5739 5738 5737 5736 5736 5735 5735 5735 5734 5737 5737 5735 5735 5736 5737 5737 5736 5736 5735 5735 5735 5736 5736 5736 5736 5736 5737 5737
5750 5753 5754 5754 5752 5750 5748 5744 5743 5742 5740 5740 5740 5739 5737 5737 5735 5734 5733 5732 5731 5731 5731 5730 5734 5733 5731 5732 5732 5733 5732 5732 5732 5731 5730 5731 5731 5731 5731 5731 5731 5732 5732
5749 5750 5752 5751 5750 5748 5745 5744 5742 5740 5739 5738 5738 5737 5735 5734 5732 5731 5730 5728 5728 5728 5727 5726 5727 5727 5728 5728 5729 5729 5728 5727 5726 5726 5725 5726 5726 5726 5727 5727 5727 5727 5727
5747 5748 5749 5749 5748 5746 5744 5742 5740 5738 5736 5735 5735 5735 5733 5731 5730 5729 5727 5726 5725 5725 5725 5724 5724 5724 5724 5725 5725 5724 5723 5722 5721 5721 5720 5721 5721 5722 5722 5722 5722 5722 5723
5746 5745 5746 5747 5745 5743 5741 5740 5738 5736 5734 5733 5732 5732 5731 5728 5727 5726 5725 5724 5723 5722 5722 5721 5720 5720 5720 5720 5720 5719 5718 5717 5717 5716 5715 5715 5716 5717 5717 5717 5717 5718 5718
5744 5743 5743 5744 5742 5741 5738 5737 5735 5734 5732 5731 5729 5729 5728 5726 5725 5723 5721 5720 5719 5718 5718 5717 5716 5714 5714 5714 5713 5714 5713 5713 5712 5711 5710 5710 5711 5711 5712 5713 5713 5714 5714
5744 5743 5741 5741 5740 5738 5736 5735 5733 5731 5730 5728 5726 5726 5725 5724 5722 5720 5718 5716 5715 5714 5714 5713 5711 5710 5709 5708 5708 5708 5709 5708 5708 5707 5707 5706 5706 5706 5707 5708 5708 5709 5710
5743 5741 5739 5739 5736 5735 5733 5732 5730 5728 5726 5724 5723 5722 5722 5720 5719 5716 5714 5712 5711 5710 5709 5707 5706 5704 5703 5702 5702 5703 5704 5704 5705 5704 5704 5703 5702 5702 5702 5703 5704 5705 5706
5741 5739 5737 5736 5733 5732 5730 5729 5727 5725 5722 5720 5719 5718 5717 5716 5715 5713 5711 5709 5708 5706 5704 5704 5701 5699 5697 5696 5697 5698 5699 5699 5700 5701 5701 5700 5699 5699 5699 5698 5699 5700 5702
5739 5737 5734 5733 5731 5729 5727 5725 5722 5720 5718 5717 5716 5715 5712 5712 5711 5709 5707 5706 5704 5701 5699 5698 5697 5696 5694 5694 5694 5694 5694 5695 5696 5697 5697 5697 5696 5696 5696 5695 5695 5696 5697
5734 5732 5730 5728 5727 5725 5721 5718 5715 5713 5713 5712 5712 5712 5710 5709 5707 5706 5704 5702 5700 5697 5696 5695 5693 5691 5690 5691 5688 5686 5688 5691 5691 5692 5693 5692 5693 5693 5693 5693 5693 5693 5693
5728 5727 5726 5724 5723 5722 5719 5717 5714 5711 5710 5709 5708 5708 5707 5705 5704 5702 5701 5698 5696 5694 5692 5691 5690 5688 5687 5689 5686 5681 5677 5679 5685 5688 5688 5688 5689 5690 5690 5690 5690 5690 5689
5724 5723 5723 5721 5719 5718 5717 5714 5711 5708 5706 5704 5703 5702 5702 5702 5700 5699 5698 5696 5694 5692 5689 5689 5688 5685 5682 5685 5686 5681 5675 5671 5674 5680 5683 5684 5685 5685 5686 5687 5687 5687 5686
5722 5722 5720 5718 5717 5715 5713 5710 5705 5701 5697 5698 5699 5699 5699 5698 5697 5696 5695 5694 5692 5691 5688 5687 5687 5685 5682 5680 5682 5684 5683 5680 5673 5670 5675 5679 5681 5681 5682 5683 5683 5682 5682
5719 5717 5716 5714 5713 5712 5710 5707 5702 5699 5697 5697 5697 5695 5694 5694 5694 5693 5692 5691 5690 5688 5687 5686 5685 5684 5682 5679 5678 5679 5679 5679 5679 5671 5667 5671 5674 5677 5678 5678 5679 5678 5678
5715 5713 5711 5709 5707 5707 5705 5703 5700 5696 5694 5692 5691 5690 5689 5689 5690 5690 5689 5688 5687 5686 5685 5683 5682 5681 5680 5680 5679 5678 5676 5674 5673 5672 5668 5667 5668 5670 5674 5675 5675 5674 5674